CAPE
1036 1092 1081 517 429 365 352 438 414 409 516 361 189 190 190 296 426 580 779 548 707 1096 1212 1756 2425 2247 2426 2336 2139 1989 1934 1779 1728 1847 1867 1675 1553 1442 1267 1301 1100 1050 1486 1462 1096 1167 1245 1346 1342
1180 1141 200 3 179 297 528 387 525 491 397 277 173 177 200 521 632 698 890 781 972 1133 1412 1597 2726 2731 2409 2394 2050 1762 1755 1781 1888 1547 1660 1580 1435 1267 1206 997 976 1235 1416 1240 1418 1423 1571 1621 1529
645 419 273 195 110 92 459 333 328 308 304 351 379 223 226 557 445 676 888 873 1026 1360 1544 2253 2333 2386 2220 2239 1469 1199 1011 1218 1264 1574 1657 1307 1242 1367 1237 1294 1261 1313 1458 1257 985 1623 1271 1320 1262
570 361 342 330 26 68 149 241 223 285 217 282 241 333 239 364 501 839 845 974 1341 1581 1635 2002 2266 2111 2184 2161 1820 2218 1507 1649 1272 928 947 1387 1457 1492 1496 1568 1463 1192 1034 917 1323 1218 1212 1378 1219
996 677 344 231 45 84 208 103 116 244 284 318 175 285 313 383 618 839 904 929 1074 1052 1295 2048 2549 2215 2157 2200 1817 1668 1563 1088 1504 1368 1276 1095 949 1088 1017 914 917 1317 1161 1420 945 810 882 901 813
446 633 106 180 135 237 194 131 201 217 351 313 424 273 545 463 766 959 776 859 715 1064 1207 1734 2035 1950 1937 1860 1876 1445 1739 1172 1457 1106 1040 1097 1450 1144 1193 1381 1416 1381 1167 922 792 794 875 869 913
59 274 97 81 176 174 99 160 198 265 382 425 343 362 675 396 461 638 538 711 697 740 1181 1630 1697 1550 1905 1824 1714 1385 1092 1178 964 1159 1141 1485 1507 1295 1314 1283 1268 1115 868 960 808 991 773 803 1132
64 470 151 137 217 293 169 105 175 321 417 312 174 284 550 625 139 138 240 342 609 1311 1536 1777 1863 1636 1830 1635 1480 799 1068 1091 1172 569 981 1032 1233 1226 885 973 1211 1010 1014 1192 1048 564 530 773 917
92 387 274 143 227 349 163 405 155 171 346 201 167 271 488 618 289 381 565 658 1030 1268 1364 1576 1742 1692 1633 1421 1400 876 720 937 255 697 1126 1085 311 168 198 526 881 1160 1345 1316 1192 837 725 745 1122
205 455 357 383 379 119 143 470 280 169 156 292 344 407 637 731 663 649 731 787 923 1032 1129 1088 1169 1241 1178 1045 1271 926 946 622 609 1269 1266 946 530 383 575 816 1054 879 816 970 1299 1261 1092 777 1027
492 465 544 554 529 194 188 373 347 275 334 164 188 614 701 710 813 806 655 546 659 1185 1179 1070 1136 1098 1002 959 2381 1842 798 826 879 1250 1114 592 754 648 522 599 754 1197 1508 1822 1142 960 736 905 906
440 700 712 548 372 240 315 344 204 285 281 65 113 516 627 635 828 687 578 573 842 1062 1141 1049 1097 1380 1029 1078 866 601 751 460 104 364 1065 1075 1069 1077 1078 714 925 1258 952 992 703 555 687 741 820
441 551 341 317 271 231 448 358 276 391 200 70 269 412 472 478 560 486 551 698 864 1036 1156 1055 1035 1263 1099 1012 852 652 490 54 48 702 1256 820 870 1410 1418 1521 1123 778 333 710 544 520 224 242 899
547 336 364 345 363 320 280 375 303 372 341 134 236 274 375 381 412 546 650 661 742 888 1011 1009 1015 1062 1044 852 645 518 122 42 438 839 1121 1433 1277 1503 1253 1596 1339 915 614 597 627 706 665 424 1118
460 216 495 585 358 511 320 317 283 428 446 131 211 250 313 382 486 625 626 661 700 820 924 869 818 756 833 530 348 218 177 47 713 562 1037 1402 1805 1778 1892 1673 1617 1612 1605 1740 1240 1163 1219 692 936
32 313 217 550 505 591 511 433 317 396 413 81 182 259 264 390 417 500 582 533 474 560 799 868 483 344 377 117 522 282 49 308 559 577 921 1625 1938 2181 2467 1818 1882 1890 1793 1627 1518 1775 1164 847 467
90 42 58 315 661 639 623 477 379 551 550 206 249 297 330 419 478 524 517 524 429 514 835 860 618 402 210 397 460 348 304 576 647 715 1119 1667 1930 1897 2260 1752 1813 2630 1787 1791 1859 1656 1446 1315 1491
4 1 14 269 758 718 668 631 484 608 634 460 289 301 389 420 456 509 515 529 542 567 835 959 908 602 624 494 457 301 278 673 680 842 1119 1699 1724 1920 2384 1628 2097 2503 1615 1761 2056 1771 1535 1523 1687
13 43 17 170 516 712 908 796 573 577 631 623 590 485 391 428 307 522 565 523 582 657 961 1118 1068 962 734 483 241 244 434 848 904 929 1428 1988 1845 1723 2443 1312 1489 1711 1794 1820 2277 2107 2013 1207 1485
67 40 77 519 680 988 1108 1056 894 685 671 651 610 672 616 417 588 568 689 658 645 819 1000 1209 1252 1330 935 353 252 309 672 940 1123 1050 1586 1896 1813 2166 1789 1530 1117 1553 1354 1999 2132 2192 2397 949 1038
22 8 49 337 633 1057 983 936 797 876 797 646 609 546 529 610 596 334 844 775 785 874 1040 1228 1440 1511 942 366 517 1168 982 1521 2161 1414 2448 1603 2356 2078 2026 2393 2169 2018 2397 1435 2111 2034 2188 1127 1282
25 0 102 257 483 488 657 425 455 615 701 908 749 567 531 442 363 641 883 859 898 901 986 1109 1513 1529 1271 787 801 910 472 1540 1322 660 869 2373 2076 2265 2270 2269 2370 2033 2704 2036 1796 1398 2002 1994 987
24 43 164 155 248 212 654 617 369 461 337 560 748 784 637 509 343 578 758 850 862 851 863 1022 1494 1604 1380 1366 1374 1115 606 857 807 1090 1618 2319 2553 1833 2205 2277 2089 2035 2003 2040 2386 1845 2651 1631 1571
86 173 176 276 266 226 87 90 59 61 255 466 414 632 773 452 391 637 671 796 912 850 853 806 1306 1665 1550 1525 1644 1404 424 977 765 1256 1206 1228 1207 1552 2210 1992 1903 1963 1836 1745 2073 2176 2265 2246 2102
48 58 52 110 257 87 103 26 109 91 265 497 475 664 823 696 457 744 819 861 1052 998 932 805 1261 1655 1597 1548 1518 1138 876 1552 1375 1189 1146 1052 1176 1129 1328 2334 1895 1689 1930 1845 1975 2589 1571 2160 1788
65 21 64 11 45 39 176 90 102 197 253 510 406 575 785 678 584 832 1034 1114 1155 1130 1140 959 1269 1591 1466 1485 1564 1514 1074 942 985 896 785 1064 1044 1225 1767 2275 2097 1879 2037 2116 2222 1756 1762 1893 1561
19 30 21 6 1 2 48 68 481 656 489 486 598 606 825 759 706 924 1178 1239 1158 1240 1394 1288 1232 1581 1542 1328 1641 1698 1448 1227 667 848 849 667 956 1507 2283 2358 2077 1545 1838 1967 2249 1590 1752 1843 1777
0 2 3 1 0 52 100 89 154 757 636 498 604 732 870 914 862 862 1071 1303 1298 1319 1424 1404 1446 1580 1556 1399 1444 1505 1556 1529 1328 1185 1252 766 388 1509 2192 2202 2019 2075 1797 2176 2424 1695 2028 1905 1598
0 0 0 2 3 76 122 139 20 510 842 598 538 585 900 1019 1097 1037 1019 1461 1473 1387 1425 1510 1542 1626 1568 1389 1358 1431 1430 1374 1446 1183 1173 1276 1062 1003 2199 2046 2232 1976 2173 2195 1983 2210 1655 1946 1887
0 0 1 0 35 3 26 83 22 447 818 876 690 714 698 997 1265 1327 1359 1476 1481 1586 1544 1731 1746 1659 1570 1433 1392 1319 1523 1453 1226 1251 1145 1115 1145 1219 1199 2352 2470 2156 2012 2110 2266 2124 1378 1919 1976
CIN
-100 -51 -46 -80 -10 -3 0 0 -2 0 -1 -9 -83 -78 -4 -15 -2 -8 -14 -108 -86 -63 -27 0 0 0 0 0 0 0 0 0 0 0 0 0 0 0 -1 0 -3 -3 -1 -3 -15 -6 0 0 -1
-30 -39 -102 -54 -2 0 0 0 0 0 -10 -30 -108 -31 -2 -4 -27 -42 -17 -52 -40 -8 0 0 -1 0 0 0 0 -1 0 0 0 0 0 0 0 -1 0 -1 -4 -2 -1 -2 0 -1 0 0 0
-81 -92 -25 -5 -13 -13 0 0 -1 -8 -23 -9 -10 -33 -14 -10 -50 -17 -2 -19 -6 -8 -1 0 -1 -2 0 0 -4 -11 -13 -7 -2 0 0 -1 0 0 0 0 0 -1 -1 -1 -6 0 -7 -2 -2
-76 -73 -21 0 -4 0 -16 -3 -16 -11 -31 -25 -22 -11 -46 -52 -17 -10 -8 -1 0 0 0 -4 0 0 0 0 0 0 0 0 -1 -1 -1 0 0 0 0 0 0 0 -1 -4 -3 -5 -6 -4 -2
-50 -12 0 0 -21 -39 -1 -27 -41 -5 -8 -3 -6 -15 -23 -33 -19 -2 -2 0 0 0 0 0 0 0 0 0 0 0 0 -4 0 -1 0 0 0 0 0 -1 -3 0 0 -1 -17 -17 -14 -23 -17
-1 -9 0 0 0 0 -1 -17 -7 -13 -6 -8 -3 -4 -2 -20 0 0 -1 0 0 0 0 0 -2 -2 0 0 0 -1 0 -5 0 0 -2 -3 0 -1 -1 0 0 0 0 -11 -15 -20 -16 -26 -18
-10 0 0 0 -1 -1 -3 -20 -40 -3 0 -1 -4 0 0 -1 0 0 -3 0 0 0 0 0 0 -4 0 0 0 0 0 -1 -1 -2 0 0 0 0 -1 0 0 0 0 -2 -20 -12 -24 -31 -21
-15 -3 0 0 0 0 -5 -23 -54 -2 -3 -15 -2 -5 0 0 -12 -21 -7 0 0 0 0 0 0 0 0 0 -1 -5 -2 0 -4 -21 -1 -11 -1 -1 -7 -8 -3 0 0 -3 -7 -27 -39 -29 -25
-44 0 0 0 -1 0 -18 0 -25 -69 -3 -24 -35 -2 0 -3 0 0 0 0 0 0 0 0 0 0 0 0 -1 -4 -5 0 -34 -13 -3 -12 0 -14 -31 -21 -16 -3 -2 -1 -5 -11 -14 -18 -18
-4 0 -1 -3 0 -2 -4 0 -13 -23 -32 -11 -10 -9 -4 0 0 0 0 0 0 0 0 0 0 0 0 0 0 0 0 -1 -8 -3 0 0 -1 0 -2 -10 -12 -9 -14 -2 0 -4 -7 -17 0
-1 0 -3 0 -7 -9 0 -3 -8 -3 0 -1 -1 -9 -6 0 0 0 -1 0 0 0 0 0 0 0 0 0 0 0 0 0 0 -1 -19 0 0 -1 0 0 0 0 -6 -2 -7 -8 -20 0 0
-1 -8 -11 -8 -27 -17 0 -15 -34 -1 -1 -15 -20 -19 -1 0 0 0 -2 0 0 0 0 0 0 0 0 0 0 0 0 0 -8 -19 -7 0 0 0 0 0 0 0 0 -34 -13 -12 -41 -2 0
-1 -1 -13 -40 -40 -20 -6 -6 -13 0 -7 -27 -19 -7 0 0 0 -11 -2 -3 0 0 0 0 0 0 0 0 0 0 0 -20 -14 0 0 0 0 0 0 0 0 0 -25 -14 -15 -3 -79 -76 -3
-10 -10 -21 -36 -16 -9 -4 0 -7 -4 -3 -12 -14 -8 0 0 0 -2 0 -1 0 0 0 0 0 0 0 0 0 -4 -16 -65 -1 0 0 0 0 0 0 0 0 -2 -8 -10 -3 -2 -8 -47 0
-21 -6 -8 -4 -19 -2 -14 -2 -5 -6 0 -5 0 -7 -2 0 0 0 0 0 0 0 0 0 0 0 0 0 -2 -15 -52 -92 0 0 0 0 0 0 0 0 0 0 0 -1 -1 -3 0 -11 -1
-15 -16 0 -6 -18 -13 -12 0 -38 -61 -7 -1 0 -12 -5 0 -1 0 0 0 -2 -1 0 0 0 0 0 -4 -3 -18 -111 -8 0 0 0 0 0 0 -1 0 0 0 0 0 0 0 0 0 -9
-8 0 -3 0 -16 -1 -6 -1 -34 -36 -1 0 -1 -2 -1 0 0 0 0 0 0 -1 0 0 0 0 -6 0 0 0 -2 0 0 0 0 0 0 0 0 0 0 -3 0 0 0 0 0 0 0
0 0 -1 -1 0 -14 0 -1 -9 -16 -10 -5 0 0 0 0 0 0 0 0 0 0 0 0 0 0 0 0 0 -1 -2 0 0 0 0 0 0 0 0 0 0 -1 0 -1 -1 0 0 -1 0
-3 -1 0 -7 -20 -21 -7 -7 -1 -15 -10 -5 -4 0 0 0 -5 0 0 0 0 0 0 0 0 0 0 0 -2 -2 0 0 0 0 0 0 0 0 0 0 0 0 0 0 0 0 0 0 -1
-1 -1 -1 -8 -33 -29 -4 -13 -14 -25 -36 -16 -13 -6 -1 0 -17 -18 -10 -3 -2 0 0 0 0 0 0 0 -1 0 0 0 -6 0 0 0 0 0 0 -2 0 0 0 0 0 0 0 -1 -7
-1 -1 -1 -2 -16 -34 -31 -8 -14 -19 -34 -37 -27 -8 -11 -5 -6 -100 -11 -13 -3 -4 0 0 0 0 0 0 0 0 -2 -1 0 0 0 0 0 0 -6 0 0 0 0 0 -1 0 -1 0 -3
0 0 -3 -9 -5 0 -32 0 -3 -9 -25 -33 -37 -31 -13 -28 -12 -29 -8 -12 -7 -5 -3 0 0 0 0 0 0 0 -1 -4 0 -1 0 0 -1 -1 0 0 0 0 0 0 0 0 0 -5 0
-1 -14 -4 -7 -2 -9 -3 -2 0 -19 -3 -21 -33 -39 -25 -12 -15 -9 -12 -10 -3 -3 -8 0 0 0 0 0 0 0 -1 0 -1 -13 -3 -2 -1 -1 0 0 0 0 0 -1 -1 0 -1 -1 0
-16 -4 -6 -3 0 0 -9 -14 -1 -8 -16 -28 -51 -42 -39 -34 -19 -9 -7 -13 -8 -6 -12 -6 0 0 0 0 0 0 -1 0 0 0 0 0 0 0 0 0 -1 0 0 0 0 0 0 0 0
-15 0 0 -1 -1 -2 -11 -16 -5 -36 -44 -50 -54 -56 -50 -44 -19 -7 -9 -9 -10 -15 -16 -12 -4 0 0 0 0 0 -1 0 0 0 0 0 0 0 0 -1 0 0 0 0 0 0 -5 0 0
-6 0 0 -1 -2 -1 -6 -1 -1 -55 -68 -83 -103 -59 -47 -52 -27 -10 -13 -20 -17 -21 -31 -24 -15 -1 0 0 0 0 -1 -2 -2 -7 -1 0 0 0 0 -2 0 0 0 0 0 -1 -2 0 -2
0 -2 0 0 0 -1 -1 -1 -17 -43 -38 -67 -70 -71 -47 -54 -39 -23 -9 -23 -28 -33 -40 -35 -36 -15 -5 -8 -1 0 -5 -6 -7 -7 -19 -10 -1 0 0 -1 -1 -1 0 0 0 -1 0 0 0
0 0 0 0 0 0 0 -3 -1 -4 -20 -40 -38 -40 -41 -32 -55 -36 -15 -13 -24 -26 -38 -44 -42 -39 -19 -14 -14 -9 -6 -15 -14 -11 -20 -28 -26 -1 0 -1 -1 -1 0 0 0 -1 0 0 0
0 0 0 0 0 0 0 0 -8 -3 -10 -27 -32 -25 -33 -24 -19 -29 -43 -21 -25 -30 -37 -45 -46 -45 -47 -46 -33 -30 -28 -28 -20 -21 -27 -30 -30 -26 0 0 0 -1 -1 -1 0 0 -6 0 0
0 0 0 0 -1 0 -3 -1 -21 -5 -6 -15 -23 -45 -26 -32 -18 -15 -16 -42 -45 -60 -58 -69 -63 -59 -47 -50 -62 -55 -46 -39 -32 -39 -37 -36 -38 -28 -21 0 0 0 0 0 0 0 0 0 0
Wind_Speed
8 8 4 8 8 4 10 14 10 12 11 6 12 7 12 14 15 14 15 16 20 11 9 11 11 15 13 10 10 8 4 5 8 6 7 6 5 4 6 5 4 5 5 6 7 9 12 12 14
4 1 5 nan 8 14 13 13 16 14 14 13 14 10 8 14 13 12 13 14 23 11 10 8 7 10 13 13 11 10 7 7 8 7 7 6 4 4 4 5 5 5 6 8 9 8 8 12 10
1 5 6 10 13 nan 16 15 14 14 11 8 10 7 7 11 11 9 17 20 17 12 7 16 8 11 8 10 9 9 7 8 6 7 8 6 3 3 5 4 6 7 7 9 9 8 5 5 6
2 6 9 7 nan nan 7 14 12 13 13 7 9 13 14 14 10 6 15 17 15 10 10 11 11 9 12 10 8 4 4 7 5 8 8 11 2 4 4 5 6 8 9 12 15 10 7 5 6
2 4 3 8 nan nan 3 7 1 7 9 9 5 10 14 16 10 12 15 14 14 10 5 6 7 10 11 10 7 3 6 6 6 6 8 6 4 4 5 5 8 8 11 15 15 12 7 9 7
4 5 8 10 11 13 10 12 9 9 9 13 9 11 14 15 11 9 11 10 8 7 4 7 5 7 6 7 5 3 7 6 7 7 11 1 1 4 5 7 8 11 11 13 13 13 8 5 9
nan 3 nan nan 8 10 nan 12 17 11 12 13 9 8 13 15 13 10 9 7 9 1 8 4 4 0 5 6 4 4 7 10 11 14 4 5 1 2 3 6 10 13 12 12 14 16 14 8 8
nan 2 1 3 7 11 16 15 14 11 15 16 5 7 10 20 13 11 11 10 10 7 3 7 5 3 2 6 6 7 10 11 10 9 2 0 0 1 4 10 13 18 18 18 14 16 15 10 5
nan 2 4 6 2 11 12 9 14 12 16 13 11 12 18 22 15 11 11 9 7 3 4 6 3 1 2 5 8 9 11 15 14 4 3 5 6 7 10 3 10 15 17 15 15 19 17 13 11
1 2 8 5 3 9 13 12 15 12 14 19 14 14 18 20 13 10 11 9 8 5 4 3 6 7 7 6 9 8 12 8 12 2 4 8 6 7 11 8 17 17 18 13 13 16 17 16 14
6 6 7 4 1 4 12 18 9 7 15 15 12 14 17 14 10 9 9 9 8 4 3 5 8 9 6 7 10 7 8 7 9 5 12 6 5 9 11 13 17 18 27 19 17 13 7 7 12
5 9 8 5 5 8 8 13 14 9 23 nan 16 14 15 11 10 8 8 9 8 6 7 4 9 9 5 6 6 9 8 6 3 4 12 5 9 7 10 11 14 16 15 13 15 15 12 9 11
10 12 11 7 8 7 8 2 8 9 17 nan 19 14 12 9 8 8 8 12 7 6 7 7 9 7 6 6 9 10 9 nan nan 5 6 8 9 7 7 9 12 11 10 14 20 18 14 11 13
14 15 9 6 6 4 4 4 4 8 14 16 17 14 10 9 10 10 9 10 8 6 7 9 7 7 6 6 13 9 7 nan 9 8 5 7 10 6 6 10 13 13 13 14 16 19 17 14 14
11 13 10 7 5 2 5 5 4 11 13 12 12 12 10 8 11 10 9 8 11 7 6 7 4 6 6 7 11 9 12 nan 9 8 6 8 7 4 8 8 11 12 11 13 17 19 17 16 16
nan 5 14 13 8 6 4 8 10 14 5 nan 9 11 7 7 6 7 9 10 9 7 8 5 4 7 4 5 6 10 nan 12 11 9 7 3 4 5 4 4 6 5 10 12 15 18 15 13 12
nan nan nan 12 7 7 3 6 13 9 7 6 6 9 7 6 3 6 8 9 11 8 9 3 4 5 4 4 3 6 7 11 8 8 7 2 2 3 5 4 2 5 8 12 8 13 15 8 8
nan nan nan 11 11 1 4 6 10 9 7 5 5 2 5 7 7 7 6 11 10 11 10 2 4 5 3 6 8 6 6 8 9 6 5 3 2 2 2 3 3 5 7 7 7 10 8 7 7
nan nan nan 11 10 3 4 7 2 8 7 6 2 4 6 6 8 7 8 10 13 11 8 6 3 7 4 4 5 6 6 5 7 6 5 3 2 2 3 2 5 5 5 4 6 7 13 6 4
nan nan nan 15 12 4 5 8 4 8 15 10 9 5 4 8 9 6 11 12 11 11 9 6 5 8 5 6 7 9 10 8 8 8 5 3 1 4 3 1 2 3 4 6 5 7 9 7 7
nan nan nan 17 8 1 6 8 2 5 11 18 14 10 8 6 11 9 13 14 12 12 9 7 5 7 5 6 8 11 13 13 8 10 8 5 4 6 2 3 3 1 7 7 5 4 5 4 5
nan nan 12 10 7 11 8 6 9 8 8 9 17 13 12 17 9 15 16 14 12 11 8 6 8 8 7 7 10 7 9 13 17 14 11 11 6 7 3 3 3 5 6 3 5 2 2 5 2
nan nan 10 16 14 21 10 4 16 12 10 10 11 14 18 15 17 15 17 14 11 9 6 7 9 10 9 10 7 10 7 11 13 15 13 11 10 7 3 6 4 5 2 4 3 3 1 2 6
nan 6 3 8 8 12 nan nan nan nan 7 10 13 11 16 17 16 15 14 16 12 9 2 6 7 6 6 6 6 9 11 13 12 8 11 6 9 7 7 7 5 4 4 2 2 0 3 1 3
nan nan nan 1 8 nan 17 nan 4 nan 5 7 8 16 19 16 17 17 19 14 14 11 8 5 7 7 5 4 3 3 5 9 10 12 9 10 8 6 8 6 4 7 5 3 0 0 1 2 3
nan nan nan nan nan nan 14 nan 10 4 4 5 7 11 17 16 17 14 20 16 14 12 11 8 7 5 6 5 4 4 2 4 6 8 11 10 9 9 13 7 9 8 7 7 6 4 2 3 2
nan nan nan nan nan nan nan nan 13 9 5 5 9 15 15 14 12 10 18 15 12 13 10 9 8 5 5 5 3 5 3 1 4 6 10 10 7 10 10 8 9 8 8 8 8 6 5 6 5
nan nan nan nan nan nan 15 nan 10 5 7 6 7 9 12 17 14 8 10 11 10 10 9 9 7 6 5 4 6 6 5 4 1 5 5 6 8 8 9 8 7 9 9 10 8 7 8 6 7
nan nan nan nan nan nan 3 12 nan 5 6 9 6 6 13 16 16 16 12 12 13 13 13 11 9 9 8 7 5 4 6 6 4 3 3 4 5 6 8 8 8 9 12 13 11 9 8 7 7
nan nan nan nan nan nan nan nan nan 11 4 4 7 12 14 11 14 16 19 18 17 14 14 13 12 12 11 11 10 10 8 7 7 7 6 7 8 9 9 10 10 12 9 10 10 8 8 11 8
Wind_Direction
10 23 39 55 30 11 287 282 293 288 298 302 302 267 240 213 195 213 265 248 304 283 297 318 310 238 210 235 259 266 276 282 294 311 324 346 3 352 21 35 32 25 9 333 322 318 324 326 333
347 44 58 nan 48 347 282 260 261 254 278 297 306 296 259 249 226 255 287 287 273 309 344 296 329 239 204 222 245 263 281 279 292 311 317 333 335 332 16 37 25 17 356 334 340 337 331 331 330
86 77 56 26 349 nan 286 237 240 261 283 313 295 271 248 250 234 275 278 300 285 251 311 270 299 279 236 248 248 274 290 284 293 297 300 322 309 336 13 13 18 21 15 10 357 357 358 354 337
33 20 22 17 nan nan 206 222 240 276 280 308 303 278 275 252 251 256 302 301 280 302 284 278 279 267 244 249 250 301 335 309 291 289 305 343 18 353 358 3 27 31 14 4 0 20 45 5 341
330 354 3 302 nan nan 281 210 290 293 294 307 330 283 270 253 250 288 306 291 282 277 280 277 249 270 256 241 248 259 301 337 316 299 296 314 8 330 348 4 26 24 13 18 23 29 67 51 34
301 312 282 262 298 311 307 255 271 301 309 301 309 281 257 265 288 296 316 303 271 260 254 269 271 299 207 232 286 314 299 338 330 313 297 192 326 326 353 18 15 14 11 21 28 51 59 85 74
nan 297 nan nan 247 328 nan 279 274 285 299 301 289 271 264 282 287 294 295 281 268 246 235 236 277 330 184 263 299 279 315 321 304 300 238 285 281 311 19 27 20 9 12 21 39 36 29 345 22
nan 31 216 271 235 284 307 263 262 269 266 282 265 273 293 290 299 295 287 286 276 244 235 229 209 147 98 286 291 291 306 317 305 311 270 175 190 60 42 42 32 49 48 53 40 31 25 27 47
nan 13 275 224 238 277 312 308 305 248 287 273 264 240 273 295 306 308 300 276 293 273 252 282 239 203 202 272 290 284 300 312 323 265 169 75 79 51 40 22 19 30 43 41 40 44 42 38 42
128 201 226 209 291 286 302 280 283 278 281 287 280 261 287 305 320 336 324 326 324 303 290 219 253 264 259 260 287 319 298 321 341 186 127 117 140 107 113 55 55 51 39 36 49 43 35 39 57
235 211 210 270 251 306 305 287 269 275 298 276 279 296 309 310 336 341 331 341 329 321 246 237 242 248 277 270 272 264 294 317 333 199 143 137 117 74 70 64 53 52 39 54 42 18 10 57 87
203 216 215 224 307 328 325 248 229 250 253 nan 263 302 314 324 342 344 316 321 310 340 304 300 280 276 273 262 289 284 283 306 37 199 112 148 100 96 98 68 63 47 40 21 35 18 36 57 72
198 224 231 248 307 320 306 304 255 280 270 nan 276 295 314 325 331 312 316 303 312 331 315 295 273 284 274 256 258 269 275 nan nan 148 134 139 114 98 67 65 70 52 44 36 36 36 40 66 71
218 205 243 268 313 336 338 259 191 299 288 285 289 296 312 324 322 307 312 323 326 314 306 298 285 276 262 251 260 244 265 nan 164 169 162 112 105 92 90 71 65 61 48 47 36 29 20 50 57
220 196 235 295 331 324 12 74 237 237 312 299 298 300 309 319 323 328 330 338 311 313 289 290 293 293 282 263 280 262 239 nan 163 158 143 114 100 66 109 78 74 62 47 44 41 31 34 64 68
nan 242 197 266 293 281 51 272 289 281 333 nan 301 298 312 332 342 318 319 324 329 321 289 276 275 293 295 279 274 260 nan 145 166 146 151 121 95 103 59 60 77 54 57 45 41 34 44 57 54
nan nan nan 240 297 261 39 244 287 294 303 316 304 307 310 316 328 305 313 343 313 322 304 271 285 300 297 247 162 114 163 149 141 159 145 151 90 98 106 50 56 45 60 49 47 54 54 44 62
nan nan nan 211 263 323 109 92 296 315 346 353 349 346 328 329 328 318 337 330 328 309 328 304 238 260 287 192 171 161 163 151 159 157 142 148 127 11 81 51 50 31 50 36 14 58 32 52 53
nan nan nan 219 224 184 117 125 89 339 21 23 29 349 332 328 269 312 351 340 327 318 309 313 249 247 224 196 163 178 178 179 185 172 163 174 170 335 331 59 352 21 11 52 60 30 21 39 32
nan nan nan 250 230 205 147 105 90 1 353 9 355 357 7 310 330 319 337 345 345 326 308 301 269 264 228 186 192 197 209 235 199 183 206 173 220 309 342 154 42 5 59 8 37 47 55 39 43
nan nan nan 200 218 260 165 82 129 349 347 341 11 342 348 330 325 326 341 336 2 339 315 286 289 264 243 214 212 216 217 196 215 207 213 212 248 295 351 354 110 5 50 20 2 30 48 65 7
nan nan 210 237 180 198 199 180 286 282 276 346 349 9 2 351 7 353 343 333 354 0 316 293 276 273 261 251 234 219 208 229 221 211 214 213 268 280 293 4 14 17 41 3 7 326 38 83 21
nan nan 193 210 204 201 269 116 283 303 312 292 326 352 2 344 346 324 338 336 343 356 337 285 280 277 268 266 218 238 210 233 252 222 214 209 252 253 272 321 346 2 340 347 91 347 160 11 137
nan 27 1 35 37 322 nan nan nan nan 270 274 274 322 349 357 348 335 319 320 330 344 345 307 311 297 285 280 259 227 243 236 236 236 234 220 235 283 319 303 297 304 319 341 20 352 61 78 189
nan nan nan 352 1 nan 296 nan 163 nan 265 295 271 301 327 335 326 333 335 319 327 343 0 315 319 331 321 324 293 261 239 248 228 207 229 217 224 234 261 273 316 302 304 278 321 327 144 65 202
nan nan nan nan nan nan 306 nan 269 224 183 287 290 295 315 323 323 332 328 337 325 336 346 359 329 335 341 327 325 273 234 225 221 223 205 227 224 235 242 245 282 291 295 282 280 281 232 233 216
nan nan nan nan nan nan nan nan 308 247 263 290 285 325 328 334 332 316 306 328 343 328 343 3 351 345 325 340 321 319 320 139 221 219 239 236 230 216 240 255 274 270 284 294 286 268 263 210 216
nan nan nan nan nan nan 284 nan 256 231 225 251 317 329 349 359 351 341 327 339 341 337 336 342 337 344 343 339 316 311 333 343 301 236 244 221 213 216 244 264 263 275 285 281 286 254 264 228 222
nan nan nan nan nan nan 271 272 nan 165 221 268 290 307 333 346 1 1 357 346 347 340 335 333 332 325 324 345 331 330 334 344 318 248 251 224 232 244 262 276 273 264 274 283 276 284 271 269 241
nan nan nan nan nan nan nan nan nan 247 132 11 311 287 302 344 347 358 355 350 339 333 339 341 332 327 328 315 319 326 314 307 303 298 295 277 260 266 269 270 262 267 272 269 271 286 268 289 279